Preview of NWS' New Version of Forecast
This preview is not operational and should not be used for support decisions.

Regional Weather Roundup (RWR)

Issued by National Weather Service (NWS)

                            
000
ASUS44 KJAN 160210
RWRMS 

MISSISSIPPI HOURLY WEATHER ROUNDUP
NATIONAL WEATHER SERVICE JACKSON MS
900 PM CDT SUN SEP 15 2019

NOTE: "FAIR: INDICATES FEW OR NO CLOUDS BELOW 12,000 FEET WITH NO
SIGNIFICANT WEATHER AND/OR OBSTRUCTIONS TO VISIBILITY.

MSZ001>002-007>008-010>013-018>021-025>028-034>036-160300-
NORTHWEST MISSISSIPPI
  
CITY           SKY/WX    TMP DP  RH WIND       PRES   REMARKS
BATESVILLE       N/A     77  73  88 CALM      30.04S                  
CLARKSDALE       N/A     81  73  78 CALM      30.04S                  
CLEVELAND      FAIR      83  70  65 E3        30.03R                  
GREENWOOD      FAIR      79  73  82 NE3       30.03R                  
GREENVILLE     FAIR      79  70  74 E5        30.02R                  
OLIVE BRANCH   CLEAR     82  70  65 CALM      30.06R                  
OXFORD         FAIR      77  72  83 CALM      30.07R                  
TUNICA           N/A     79  70  73 CALM      30.05R                  
WINONA         FAIR      75  73  93 CALM      30.05R                  
$$

MSZ003>006-009-014>017-022>024-029>033-037>039-160300-
NORTHEAST MISSISSIPPI
  
CITY           SKY/WX    TMP DP  RH WIND       PRES   REMARKS
ABERDEEN       FAIR      75  57  53 CALM      30.05R                  
COLUMBUS AFB   FAIR      78  74  86 CALM      30.03R                  
CORINTH        FAIR      75  72  88 CALM      30.06R                  
GOLDN TRIANGLE FAIR      79  73  82 CALM      30.04R                  
STARKVILLE       N/A     73  72  94 CALM      30.05R                  
TUPELO         FAIR      81  70  69 CALM      30.04R                  
$$

MSZ040-058-160300-
CENTRAL MISSISSIPPI
  
CITY           SKY/WX    TMP DP  RH WIND       PRES   REMARKS
JACKSON INTL   FAIR      82  68  62 E6        30.03R                  
JACKSON HAWKNS FAIR      83  69  62 CALM      30.03R                  
MADISON        FAIR      79  70  73 CALM      30.04R                  
MERIDIAN KEY   FAIR      79  71  76 CALM      30.03R                  
MERIDIAN NAS   MOCLDY    79  71  76 CALM      30.03R                  
RAYMOND        FAIR      77  75  94 CALM      30.02R                  
VICKSBURG VKS  CLEAR     81  72  74 CALM      30.02R                  
$$

MSZ059>079-160300-
SOUTH MISSISSIPPI
  
CITY           SKY/WX    TMP DP  RH WIND       PRES   REMARKS
BROOKHAVEN     FAIR      77  72  83 CALM      30.04R                  
HATTIESBURG    FAIR      78  72  81 CALM      30.02R                  
LAUREL         CLEAR     76  70  81 NW3       30.02R                  
MCCOMB         FAIR      83  71  67 CALM      30.02R                  
NATCHEZ        FAIR      78  71  79 CALM      30.02R                  
PINE BELT      FAIR      75  72  90 CALM      30.03R                  
$$

MSZ080>082-160300-
COASTAL MISSISSIPPI
  
CITY           SKY/WX    TMP DP  RH WIND       PRES   REMARKS
BAY ST LOUIS   PTCLDY    77  75  94 CALM      29.99R                  
BILOXI         FAIR      84  72  65 CALM      30.00R HX  90           
PASCAGOULA     FAIR      77  73  87 CALM      30.00R                  
GULFPORT       FAIR      82  72  71 CALM      29.99R                  
$$

LAZ007>009-015>016-023>026-160300-
NORTHEAST LOUISIANA
  
CITY           SKY/WX    TMP DP  RH WIND       PRES   REMARKS
BASTROP        FAIR      78  69  73 CALM      30.03R                  
TALLULAH/VBURG FAIR      84  70  62 E6        30.01R                  
VIDALIA        FAIR      83  69  63 CALM      30.00R                  
$$